Regional Weather Roundup
Issued by NWS

Home | Current Version | Previous Version | Text Only | Print | Product List | Glossary Off
Versions: 1 2 3 4 5 6 7 8 9 10 11 12 13 14 15 16 17 18 19 20 21 22 23 24 25 26 27 28 29 30 31 32 33 34 35 36 37 38 39 40 41 42 43 44 45 46 47 48 49 50

000
ASUS43 KLOT 161308
RWRIL

ILLINOIS REGIONAL WEATHER ROUNDUP
NATIONAL WEATHER SERVICE CHICAGO/ROMEOVILLE IL
700 AM CST SAT DEC 16 2017

NOTE: "FAIR" INDICATES FEW OR NO CLOUDS BELOW 12,000 FEET WITH NO
SIGNIFICANT WEATHER AND/OR OBSTRUCTIONS TO VISIBILITY.

* THESE STATIONS ARE NOT UNDER NWS QUALITY CONTROL. THEY ALSO MAY NOT
  REPORT WEATHER SUCH AS PRECIPITATION OR FOG.

ILZ001-002-007-009-015-016-024-161400-
NORTHWEST ILLINOIS

CITY           SKY/WX    TMP DP  RH WIND       PRES   REMARKS
MOLINE         CLEAR     33  24  69 CALM      29.81R
STERLING*      CLEAR     31  24  75 CALM      29.83R
SAVANNA*       PTCLDY    28  23  81 S7        29.81S WCI  21
$$

ILZ003-004-008-010-011-017-018-161400-
NORTH CENTRAL ILLINOIS

CITY           SKY/WX    TMP DP  RH WIND       PRES   REMARKS
ROCKFORD       MOCLDY    29  22  75 S8        29.83R WCI  21
FREEPORT*      PTCLDY    28  23  82 S7        29.82R WCI  20
ROCHELLE*      CLEAR     27  22  83 S5        29.84R WCI  21
DE KALB*       PTCLDY    26  23  86 S8        29.84R WCI  18
PERU*          CLEAR     31  23  73 SW10      29.85S WCI  22
$$

ILZ005-006-012>014-019>023-161400-
NORTHEAST ILLINOIS

CITY           SKY/WX    TMP DP  RH WIND       PRES   REMARKS
CHICAGO-OHARE  MOCLDY    36  24  62 SW10      29.85R WCI  28
CHICAGO-MIDWAY CLOUDY    35  25  66 SW9       29.87R WCI  28
AURORA         CLEAR     31  23  72 S6        29.85R WCI  25
LANSING*       CLEAR     31  25  79 SW8       29.89R WCI  24
JOLIET*        CLEAR     33  26  72 SW5       29.88R WCI  29
WAUKEGAN       CLOUDY    36  26  67 SW8       29.83R WCI  30
DUPAGE AIRPORT PTCLDY    30  24  78 S7        29.84R WCI  23
KANKAKEE*      CLOUDY    32  23  70 SW6       29.91S WCI  26
WHEELING       CLOUDY    37  26  64 SW9       29.86R WCI  30
MORRIS*        CLEAR     31  23  74 S9        29.86S WCI  22
ROMEOVILLE*    PTCLDY    30  24  77 SW8       29.87S WCI  22
NORTHERLY ISL    N/A     36  24  62 S6          N/A  WCI  31
$$

LMZ740>746-161400-
SOUTHERN LAKE MICHIGAN

STATION/POSITION SKY/WX   TEMP    WIND        PRES    VSBY  WAVE
                          AIR SEA DIR/SP/G                  HT/PER
                          (F)     (DEG/KT/KT) (MB)    (MI)  (FT/S)
HARRISON CRIB              38     200/ 16/ 18   N/A
BURNHAM HARBOR             36     220/  6/  9   N/A
CALUMET HARBOR             35     210/  9/ 13 1011.1R
BURNS HARBOR               36     210/ 11/ 16 1012.2R
MICHIGAN CITY              36     190/ 12/ 17   N/A
$$

ILZ025>027-034>036-040-047-049-050-058-095>099-161400-
WEST-CENTRAL ILLINOIS

CITY           SKY/WX    TMP DP  RH WIND       PRES   REMARKS
QUINCY         CLEAR     35  24  64 SW16      29.87S WCI  25
GALESBURG*     CLEAR     32  26  78 S10       29.84R WCI  24
MACOMB*        CLEAR     35  25  67 SW13      29.87R WCI  26
JACKSONVILLE*  CLEAR     35  24  64 S14       29.91S WCI  25
PITTSFIELD*    CLEAR     37  26  65 SW8       29.92S WCI  30
$$

ILZ028>032-037-038-041>044-048-051>054-059>061-161400-
CENTRAL ILLINOIS

CITY           SKY/WX    TMP DP  RH WIND       PRES   REMARKS
PONTIAC        CLEAR     33  26  76 SW9       29.89R WCI  25
BLOOMINGTON    PTCLDY    30  24  78 SW14      29.90R WCI  19
DECATUR        CLEAR     34  25  69 SW20      29.94R WCI  23
PEORIA         CLEAR     28  23  81 S7        29.88R WCI  21
LACON*         CLEAR     32  25  74 SW9       29.85S WCI  24
LINCOLN*       CLEAR     32  26  77 S8        29.92R WCI  25
SPRINGFIELD    CLEAR     34  25  69 S15       29.92R WCI  24
TAYLORVILLE    CLEAR     33  25  72 S16G23    29.96R WCI  22
$$

ILZ033-039-045-046-055>057-062-063-161400-
EAST-CENTRAL ILLINOIS

CITY           SKY/WX    TMP DP  RH WIND       PRES   REMARKS
CHAMPAIGN      CLEAR     31  25  78 S14       29.94R WCI  21
DANVILLE*      CLEAR     32  25  74 SW15      29.92R WCI  22
RANTOUL*       PTCLDY    34  27  76 SW15      29.93R WCI  24
MATTOON        CLEAR     33  26  75 S13       29.97S WCI  24
PARIS*         PTCLDY    33  27  78 S18       29.98F WCI  21
$$

ILZ079-100>102-161400-
SOUTHWEST ILLINOIS

CITY           SKY/WX    TMP DP  RH WIND       PRES   REMARKS
ALTON          CLEAR     32  27  80 S12       30.00S WCI  23
BELLEVILLE     CLEAR     31  24  76 SW10      30.01R WCI  22
CAHOKIA*       CLEAR     37  24  59 SW10      30.01R WCI  30
SPARTA*        CLEAR     32  28  82 S10       30.05R WCI  24
$$

ILZ064>066-069>071-074>076-080>082-084>086-088>090-092>094-161400-
SOUTH-CENTRAL ILLINOIS

CITY           SKY/WX    TMP DP  RH WIND       PRES   REMARKS
CARBONDALE     CLEAR     28  26  92 S9        30.09S WCI  19
CAIRO*         CLEAR     32  28  86 S6        30.15R WCI  26
EFFINGHAM*     CLEAR     33  28  80 S10       30.03S WCI  25
MARION         PTCLDY    30  28  93 S10       30.10S WCI  21
MT. VERNON     CLEAR     30  28  92 S10       30.06S WCI  21
CENTRALIA*     CLEAR     35  29  80 S13       30.03S WCI  26
SALEM*         CLEAR     35  27  75 S6        30.04R WCI  29
METROPOLIS*    CLEAR     32  27  83 S5        30.16R WCI  27
$$

ILZ067-068-072-073-078-083-087-091-161400-
SOUTHEAST ILLINOIS

CITY           SKY/WX    TMP DP  RH WIND       PRES   REMARKS
LAWRENCEVILLE  CLEAR     30  26  85 S10       30.07R WCI  21
FLORA*         PTCLDY    32  28  85 S12       30.05S WCI  23
FAIRFIELD*     PTCLDY    30  27  90 S6        30.07R WCI  24
HARRISBURG*    CLEAR     32  29  87 SW12      30.10S WCI  23
ROBINSON*      CLEAR     30  26  88 S10       30.05F WCI  21
CARMI*         PTCLDY    30  27  90 S8        30.10R WCI  22
$$

ABBREVIATIONS USED IN REMARKS
   TC - TEMPERATURE IN CELSIUS
  WCI - WIND CHILL INDEX
   HX - HEAT INDEX
  VSB - VISIBILITY
$$




USA.gov is the U.S. government's official web portal to all federal, state and local government web resources and services.